Regional Weather Roundup
Issued by NWS

Home | Current Version | Previous Version | Text Only | Print | Product List | Glossary Off
Versions: 1 2 3 4 5 6 7 8 9 10 11 12 13 14 15 16 17 18 19 20 21 22 23 24 25 26 27 28 29 30 31 32 33 34 35 36 37 38 39 40 41 42 43 44 45 46 47 48 49 50

000
ASUS43 KIND 180000
RWRIN

WEATHER ROUNDUP FOR INDIANA
NATIONAL WEATHER SERVICE INDIANAPOLIS IN
800 PM EDT TUE OCT 17 2017

NOTE: "FAIR" INDICATES FEW OR NO CLOUDS BELOW 12,000 FEET WITH NO
SIGNIFICANT WEATHER AND/OR OBSTRUCTIONS TO VISIBILITY.

* - STATION DOES NOT REPORT WEATHER SUCH AS PRECIPITATION OR FOG.

+ - STATION NOT QUALITY CONTROLLED BY THE NATIONAL WEATHER SERVICE.
    USE DATA WITH CAUTION...ESPECIALLY DEWPOINT AND RELATIVE
    HUMIDITY OBSERVATIONS.

INZ001>003-010>013-019-020-180100-
NORTHWEST INDIANA

CITY           SKY/WX    TMP DP  RH WIND       PRES   REMARKS
KNOX *+        CLEAR     55  39  54 S6        30.17S
MICHIGAN CITY+ CLEAR     59  41  51 S6        30.17R
MONTICELLO +   CLEAR     58  38  47 S5        30.20R
6HR MIN TEMP:  58; 6HR MAX TEMP:  69;

RENSSELAER +   CLEAR     57  30  35 S7        30.19R

$$

LMZ046-743>745-180100-
SOUTHERN LAKE MICHIGAN

STATION/POSITION TIME  TEMP    WIND        PRES    WAVE
                       AIR SEA DIR/SP/G            HT
                 (UTC) (F)     (DEG/KT/KT) (MB)    (FT)
BURNS HARBOR     2340   64     190/  9/ 13 1021.0R
MICHIGAN CITY    2330   64     180/ 10/ 12   N/A
5NW MICH CITY    2340   62 58  200/  8/ 10   N/A     2

$$

INZ004-005-014>016-021>024-180100-
NORTH CENTRAL INDIANA

CITY           SKY/WX    TMP DP  RH WIND       PRES   REMARKS
ELKHART        CLEAR     59  39  47 SW6       30.17R
GOSHEN         CLEAR     56  39  53 S8        30.18R
6HR MIN TEMP:  56; 6HR MAX TEMP:  68;

PERU/GRISSOM   CLEAR     53  40  62 SW6       30.21R
6HR MIN TEMP:  52; 6HR MAX TEMP:  67;

SOUTH BEND     CLEAR     58  41  53 SW7       30.18R
6HR MIN TEMP:  57; 6HR MAX TEMP:  69;

WARSAW +       CLEAR     59  41  51 SW3       30.19R

$$

INZ006>009-017-018-025>027-180100-
NORTHEAST INDIANA

CITY           SKY/WX    TMP DP  RH WIND       PRES   REMARKS
AUBURN +       CLEAR     59  37  44 SW5       30.20R
FORT WAYNE     CLEAR     52  40  63 SW9       30.21R
6HR MIN TEMP:  52; 6HR MAX TEMP:  68;

KENDALLVILLE + CLEAR     56  41  57 SW6       30.19R

$$

INZ028-029-035-036-043>045-051>053-180100-
WEST CENTRAL INDIANA

CITY           SKY/WX    TMP DP  RH WIND       PRES   REMARKS
GREENCASTLE +  CLEAR     52  41  66 CALM      30.24S
LAFAYETTE      NOT AVBL
TERRE HAUTE    CLEAR     56  40  55 S6        30.23R
6HR MIN TEMP:  56; 6HR MAX TEMP:  67;


$$

INZ030>032-037>040-046>048-054>057-064-065-180100-
CENTRAL INDIANA

CITY           SKY/WX    TMP DP  RH WIND       PRES   REMARKS
COLUMBUS       CLEAR     55  34  44 CALM      30.25S
GREENWOOD *+   CLEAR     60  42  51 S6        30.25R
INDIANAPOLIS   PTCLDY    56  40  55 S7        30.24R
6HR MIN TEMP:  55; 6HR MAX TEMP:  67;

-EAGLE CREEK   CLEAR     57  40  52 S3        30.23R
6HR MIN TEMP:  57; 6HR MAX TEMP:  67;

KOKOMO +       CLEAR     53  41  63 S6        30.23R
6HR MIN TEMP:  53; 6HR MAX TEMP:  68;

MT COMFORT *+  CLEAR     54  45  71 S3        30.25R
SHELBYVILLE    CLEAR     52  40  63 S7        30.24R
6HR MIN TEMP:  52; 6HR MAX TEMP:  68;


$$

INZ033-034-041-042-049-050-058-059-180100-
EAST CENTRAL INDIANA

CITY           SKY/WX    TMP DP  RH WIND       PRES   REMARKS
MUNCIE         CLEAR     52  42  69 SW3       30.23S
6HR MIN TEMP:  52; 6HR MAX TEMP:  68;

RICHMOND +     CLEAR     50  37  62 SW5       30.26R HAZE

$$

INZ060-061-067>069-081>083-085>088-180100-
SOUTHWEST INDIANA

CITY           SKY/WX    TMP DP  RH WIND       PRES   REMARKS
EVANSVILLE     CLEAR     57  44  62 CALM      30.25S
6HR MIN TEMP:  56; 6HR MAX TEMP:  67;

HUNTINGBURG +  PTCLDY    54  45  71 SE3       30.25F
6HR MIN TEMP:  54; 6HR MAX TEMP:  67;


$$

INZ062-063-066-070>080-084-089>092-180100-
SOUTH CENTRAL AND SOUTHEAST INDIANA

CITY           SKY/WX    TMP DP  RH WIND       PRES   REMARKS
BLOOMINGTON    CLEAR     53  41  63 CALM      30.25R
6HR MIN TEMP:  51; 6HR MAX TEMP:  67;

MADISON *+     CLEAR     52  43  71 CALM      30.28S
SEYMOUR +      CLOUDY    54  41  62 CALM      30.26R

$$





USA.gov is the U.S. government's official web portal to all federal, state and local government web resources and services.